Theta_e
318 319 320 321 322 324 325 327 329 331 332 332 332 332 333 334 334 336 337 336 334 333 333 332 332 331 331 332 332 331 330 328 325 324 324 324 324 324 323 323 322 322 321 319 318 320 322 324 325 326 326 326
314 315 317 320 322 323 324 325 327 329 331 332 331 331 331 333 334 334 336 336 335 334 333 332 332 333 333 332 333 332 331 330 327 325 325 324 324 324 324 324 323 322 321 319 318 320 322 323 323 324 325 326
311 312 313 316 320 322 323 324 325 326 328 329 329 329 329 331 332 333 335 335 335 334 334 333 332 333 333 333 333 333 332 331 329 327 326 324 324 324 324 324 324 323 321 320 318 319 322 322 322 323 325 325
309 310 310 312 316 319 322 323 324 324 325 325 325 326 328 330 331 333 334 334 334 335 334 333 332 332 332 333 333 333 332 331 330 329 328 325 325 325 324 324 324 324 323 321 320 319 321 322 323 324 325 325
308 308 309 310 312 315 318 320 321 321 322 322 323 324 326 328 330 332 333 334 334 335 334 333 333 332 332 333 332 332 332 332 331 329 328 327 326 326 326 324 324 324 324 323 321 320 321 323 324 324 324 325
307 307 308 309 310 313 315 318 319 319 320 320 321 323 325 327 329 330 332 333 334 334 334 334 333 333 332 332 332 332 332 332 331 329 328 327 327 327 327 325 324 324 323 323 322 320 320 322 324 324 324 324
307 307 307 308 309 311 313 316 318 319 319 319 320 322 325 327 328 329 331 332 333 333 334 334 333 332 332 332 332 332 332 332 332 330 328 327 327 327 327 326 325 324 323 323 322 321 319 321 322 323 323 324
307 307 308 308 309 311 313 315 317 319 319 319 320 321 325 327 327 328 329 330 331 332 333 334 333 332 332 332 332 332 331 332 331 330 329 328 328 327 327 325 324 324 324 323 323 322 319 319 321 322 323 323
308 308 309 309 310 312 313 315 317 318 318 318 319 321 324 326 327 328 328 329 330 331 332 333 333 332 331 332 332 331 331 332 331 330 328 328 326 326 326 325 324 324 324 324 323 322 320 319 320 322 323 322
310 310 310 310 311 313 314 316 317 317 318 318 319 321 323 325 326 327 328 328 329 330 331 331 332 332 331 331 331 331 331 332 331 330 328 326 325 325 325 324 325 326 325 324 323 323 321 320 319 321 322 322
312 311 311 311 313 314 315 317 317 318 318 318 318 319 321 323 325 326 326 327 327 328 329 329 330 331 332 332 331 331 332 332 331 330 328 326 325 326 326 325 326 326 325 324 323 323 323 321 321 321 321 321
312 312 312 312 314 315 316 317 317 317 318 318 319 319 320 321 323 325 326 326 327 327 328 328 329 330 331 331 331 331 331 331 330 328 326 325 324 325 326 326 326 326 325 324 324 324 323 322 322 321 320 321
311 312 312 313 314 315 316 316 316 316 317 318 319 319 319 320 322 324 325 326 326 326 326 326 327 328 329 329 331 331 329 327 325 323 322 322 322 322 324 325 325 326 324 324 323 323 323 323 322 322 321 321
311 312 312 313 313 314 315 315 314 315 316 317 317 317 318 318 320 322 323 325 325 325 324 325 326 326 327 327 329 330 328 325 323 320 319 318 319 321 323 322 323 324 323 323 323 322 322 322 322 321 321 321
311 312 312 312 312 312 314 314 314 313 314 314 315 316 317 318 318 320 321 323 324 323 323 324 324 324 325 325 326 326 326 326 324 322 321 320 322 323 323 322 321 320 320 322 322 321 320 320 320 320 321 320
310 312 312 312 311 311 313 313 313 312 313 313 314 315 316 317 318 318 319 321 322 322 322 323 323 323 322 323 323 323 324 325 324 323 323 323 324 324 322 322 322 320 320 321 320 320 320 319 319 320 319 319
310 311 312 311 311 312 313 313 313 312 313 313 314 314 315 315 316 318 318 319 321 321 322 322 322 321 321 321 322 321 321 322 322 322 322 323 323 323 321 320 321 321 321 321 320 319 320 319 318 318 318 318
310 311 311 310 310 312 312 313 313 313 313 313 313 314 314 314 315 316 317 319 320 321 321 321 320 320 319 319 319 319 319 319 319 320 320 321 322 322 321 320 320 321 321 321 319 319 319 319 318 317 316 317
310 311 311 309 309 311 311 312 312 313 312 312 312 312 313 313 313 314 315 316 318 319 320 320 319 318 317 317 317 317 317 317 317 318 318 319 320 321 320 320 320 320 320 320 318 318 318 318 317 316 315 316
309 310 310 310 309 310 310 311 311 311 311 311 311 311 311 312 312 312 313 314 315 316 317 316 316 315 314 315 315 316 316 315 316 316 317 318 318 319 319 320 320 319 319 319 318 317 317 316 316 317 316 316
307 308 309 309 309 308 309 309 310 310 310 310 311 311 311 311 311 311 311 312 313 314 314 314 313 313 313 313 314 314 314 314 314 315 316 316 317 317 318 318 318 318 318 318 317 316 316 315 316 316 316 315
304 305 306 307 308 307 307 307 308 308 309 310 310 309 310 310 310 310 310 310 310 311 311 312 312 312 312 312 313 314 313 313 313 313 314 315 315 316 316 316 316 316 316 316 316 315 315 315 315 315 314 314
301 302 303 304 305 306 306 306 307 307 307 308 308 309 310 310 310 311 311 310 310 310 310 310 311 311 311 311 312 312 313 312 312 311 312 313 313 314 314 314 314 314 314 314 314 314 313 313 313 313 313 312
300 300 301 301 302 303 304 305 305 305 306 306 307 308 309 310 310 311 311 311 311 310 310 310 310 310 310 310 311 311 311 312 311 311 310 310 311 312 312 312 312 312 312 312 311 311 311 311 311 311 311 311
299 299 300 300 300 300 301 302 303 303 304 305 306 307 308 309 309 310 310 310 311 311 311 311 311 311 311 311 311 311 311 311 311 310 309 309 309 309 310 310 311 311 311 310 309 309 309 309 309 309 309 309
298 298 299 299 299 299 299 299 300 300 301 302 303 304 305 306 307 308 309 309 309 310 310 310 310 311 311 311 311 310 310 310 309 309 309 308 308 307 308 308 309 309 309 308 308 308 307 307 307 307 307 307
297 298 298 298 299 299 299 299 299 299 299 300 300 301 302 303 305 306 307 307 308 308 308 308 308 309 309 309 310 310 309 308 307 307 306 306 306 306 306 306 306 307 307 307 307 306 305 304 304 304 305 305
297 297 298 298 298 298 298 298 298 299 299 299 299 299 300 301 302 303 304 305 306 306 307 307 307 307 307 307 308 308 308 307 306 305 304 304 304 304 304 304 304 305 305 305 305 304 303 303 302 302 304 304
297 297 298 298 298 298 298 298 298 298 298 298 298 298 299 299 299 300 301 302 303 304 304 305 305 305 306 306 306 306 306 306 305 304 303 302 303 303 303 303 303 303 303 303 303 302 302 302 301 301 302 302
297 297 297 297 297 298 298 298 298 298 298 298 298 298 298 298 298 298 298 299 300 301 302 302 303 303 304 304 304 304 305 304 304 303 302 301 301 301 301 301 301 301 301 300 301 301 301 301 301 300 300 300
297 297 297 297 297 297 297 297 297 297 297 297 297 297 297 297 297 297 297 297 298 298 299 299 300 300 301 302 303 303 303 303 302 302 301 301 300 300 300 300 300 300 300 299 299 299 300 300 300 300 299 298
Wind_Speed
18 20 21 21 21 21 22 22 22 22 23 25 25 26 27 28 29 30 31 26 21 20 20 21 21 22 25 26 25 24 21 19 18 17 16 16 18 19 20 19 21 21 18 19 21 21 21 20 19 17 17 17
18 19 20 21 21 21 22 22 23 23 23 24 24 25 26 27 28 30 33 28 23 24 22 21 22 22 25 25 25 24 22 19 18 18 17 17 17 18 19 20 21 20 18 20 21 22 22 22 20 18 17 18
20 20 21 21 21 21 21 22 22 23 24 25 24 25 25 26 27 29 32 30 27 27 24 22 22 24 26 26 25 24 23 21 19 20 20 19 18 19 19 20 19 19 20 20 21 23 24 23 20 18 18 18
22 22 21 21 21 21 21 21 22 22 23 25 25 25 25 25 26 28 31 30 30 29 26 23 23 24 27 27 26 24 24 22 21 20 21 22 21 21 21 20 19 20 20 20 21 23 24 23 20 18 19 19
22 22 21 21 21 21 21 21 21 22 22 24 25 25 25 24 24 25 28 29 31 30 28 26 26 26 26 28 27 25 25 24 23 21 21 22 22 23 23 21 20 19 20 20 20 22 23 23 21 19 20 20
23 22 21 20 20 21 21 21 20 21 21 22 23 24 24 23 24 24 24 27 31 30 30 30 28 27 27 27 27 25 26 26 26 24 22 22 24 25 25 24 22 19 18 18 19 22 23 23 22 21 21 21
24 21 20 20 20 20 20 21 21 20 20 20 21 22 22 22 23 24 23 24 26 28 31 32 29 28 27 27 27 26 26 27 29 27 24 24 25 26 25 25 23 20 19 18 19 21 24 24 23 23 22 22
24 22 21 20 19 19 20 20 21 20 20 20 20 20 20 21 22 23 23 23 22 24 28 31 30 29 27 26 26 27 28 29 30 29 27 26 28 28 26 25 24 22 22 20 20 21 24 25 24 24 24 24
23 22 21 20 19 19 19 19 20 21 20 20 20 19 18 18 19 21 22 23 22 21 24 29 33 33 29 26 27 27 29 31 32 30 28 27 28 29 27 26 26 25 24 22 21 22 24 25 24 25 25 25
22 22 22 21 19 18 18 18 19 20 20 20 20 19 18 17 18 18 19 21 22 20 21 26 32 36 32 28 28 29 30 32 34 32 31 28 27 29 29 29 30 28 25 24 23 24 25 26 26 26 27 27
22 21 22 21 20 18 17 17 18 19 19 20 20 19 18 17 17 17 17 17 19 21 21 23 26 31 35 34 31 31 32 33 36 35 33 29 26 28 30 32 34 32 28 26 26 27 27 28 28 29 29 29
21 21 21 21 19 18 18 18 18 18 18 19 19 19 18 17 16 16 16 15 16 18 19 21 22 24 31 35 34 33 32 31 31 29 27 25 25 26 31 36 35 32 30 30 30 30 30 31 31 31 30 30
21 21 21 20 19 18 18 18 18 17 17 17 17 17 17 17 16 15 15 14 14 14 15 17 18 20 25 29 34 33 26 22 22 25 26 26 26 28 31 34 33 31 31 30 31 31 32 32 32 31 30 28
21 21 21 20 20 19 18 17 15 16 16 16 17 17 16 15 14 14 14 13 13 13 14 14 16 19 23 27 31 27 20 18 20 24 23 21 21 26 28 27 26 27 27 27 28 29 29 30 30 29 27 26
20 20 20 19 19 19 17 16 14 14 14 15 15 15 14 14 13 13 13 13 12 13 13 15 16 18 21 25 24 20 19 22 24 24 23 21 23 26 25 25 25 26 27 27 27 27 26 24 23 22 22 24
18 18 18 18 17 17 17 17 16 16 15 14 14 13 12 12 13 12 12 12 12 12 13 14 16 16 17 19 18 18 22 24 25 26 27 27 26 25 24 25 26 27 28 29 29 28 24 20 19 19 20 22
17 16 16 16 15 15 16 16 17 18 17 17 16 14 12 11 11 11 11 12 11 11 12 13 14 14 14 14 15 17 19 20 22 24 25 26 24 24 26 26 27 28 28 28 28 26 22 20 19 19 21 23
16 15 14 13 12 13 15 15 16 18 19 19 18 17 15 12 10 10 10 10 11 11 11 11 12 12 12 13 14 15 16 17 20 21 22 24 24 24 26 28 28 27 28 27 26 25 23 22 20 20 23 24
16 16 15 13 12 12 14 14 15 16 18 19 19 19 17 15 12 10 10 10 11 11 11 11 11 12 12 12 13 13 14 15 17 19 21 23 24 25 26 27 27 27 28 27 26 26 25 23 22 23 25 25
15 15 16 14 12 12 13 14 15 16 18 18 19 19 19 18 16 13 12 11 11 11 12 12 12 11 11 11 11 12 12 14 15 18 20 21 23 24 26 26 27 28 28 27 27 27 26 24 24 25 25 25
15 15 16 15 13 13 12 13 15 16 17 17 17 19 20 19 18 16 14 13 12 12 12 12 12 11 11 10 11 11 11 12 14 17 18 20 21 23 24 25 27 27 26 26 26 27 26 26 26 25 25 25
15 15 15 16 15 15 14 13 14 15 15 16 17 18 19 19 19 18 17 16 15 13 13 13 12 12 11 9 9 10 11 11 13 16 17 18 20 21 22 23 23 24 24 25 27 28 28 28 26 25 25 25
16 16 15 15 15 15 15 14 14 14 14 15 16 17 17 17 18 18 18 18 18 16 14 13 13 13 12 10 9 9 9 10 12 13 16 18 19 20 21 22 24 25 26 27 28 28 28 27 25 25 25 26
16 16 14 14 14 13 13 13 13 14 13 14 14 15 15 16 16 17 18 19 18 18 16 15 14 14 12 11 10 10 9 10 12 13 15 17 19 21 22 24 25 26 27 27 27 27 26 25 25 25 26 26
15 15 14 14 15 15 15 14 13 13 13 13 13 13 15 16 16 17 17 18 17 17 16 16 15 14 13 12 11 11 10 11 12 14 15 16 19 21 23 24 25 26 26 26 25 25 25 25 25 25 26 26
15 15 16 16 17 18 18 17 16 16 15 14 13 13 14 15 15 16 17 17 17 17 17 16 16 15 14 14 13 12 12 12 13 13 15 16 18 20 23 24 25 25 26 26 26 26 24 24 25 26 26 26
15 15 16 17 17 18 18 18 18 19 19 18 17 16 15 15 15 15 16 17 17 18 18 18 17 16 16 15 15 14 13 13 14 15 15 16 18 19 22 24 25 26 26 26 27 25 23 22 22 23 25 26
15 16 16 17 17 17 18 18 18 18 18 17 17 16 15 15 14 14 15 16 16 17 18 18 17 17 17 16 16 15 15 14 14 15 16 17 18 19 21 23 24 26 26 27 26 22 20 20 19 19 22 25
15 16 16 16 16 15 16 16 15 15 15 16 16 16 16 16 15 15 15 15 15 15 16 17 17 17 17 17 17 16 16 15 14 15 16 17 18 20 22 23 24 25 26 27 27 23 20 18 15 16 20 20
16 16 15 16 15 15 16 16 16 16 17 18 18 19 19 18 18 17 16 16 15 14 14 15 16 16 17 16 16 16 16 16 15 15 16 17 18 20 22 23 24 25 26 26 26 27 25 23 19 19 20 18
16 16 16 17 17 18 18 19 19 20 20 21 20 21 20 20 20 19 18 17 16 15 14 13 14 15 15 16 16 16 15 15 15 14 15 16 18 20 22 24 25 26 26 26 26 27 28 28 27 26 24 21
Wind_Direction
312 308 305 302 298 292 288 287 287 287 290 294 292 285 281 279 278 277 272 264 265 271 274 279 278 277 278 278 278 278 278 274 271 270 271 275 277 276 275 272 262 256 247 241 241 244 245 240 238 240 243 248
311 308 306 304 302 299 295 294 294 293 292 296 297 292 289 284 277 275 272 266 265 266 265 271 273 272 274 276 276 275 276 277 274 271 273 278 282 282 276 269 267 266 255 245 241 240 243 242 238 236 240 249
311 309 307 305 303 302 299 298 297 297 296 296 298 296 294 290 280 270 268 266 264 263 262 267 271 272 273 274 274 273 273 273 274 275 275 275 281 285 277 270 269 268 260 252 245 238 239 242 240 234 235 243
310 308 307 305 303 302 300 299 298 298 298 298 299 299 296 293 286 273 266 265 263 259 258 263 269 271 270 272 273 271 271 269 269 272 273 273 276 280 278 277 272 267 263 258 249 240 237 240 239 234 234 237
310 307 305 304 302 301 300 299 298 298 298 298 299 299 299 296 291 282 273 268 265 259 255 259 265 266 265 268 271 272 271 269 266 264 265 268 271 275 278 277 271 268 266 262 254 243 237 237 236 233 234 235
312 307 305 304 302 301 300 299 298 299 298 298 299 299 300 299 295 289 281 273 269 264 257 258 262 261 261 264 269 272 272 271 267 261 258 260 264 269 273 273 270 268 265 264 258 247 239 236 235 233 234 235
313 309 305 303 302 301 300 300 298 299 299 298 299 299 300 301 299 295 289 281 277 272 261 256 260 261 259 263 268 272 274 273 268 262 257 257 260 261 263 266 265 263 259 258 252 245 239 236 234 233 234 235
314 311 308 304 303 303 302 301 299 299 299 299 299 298 298 299 300 299 295 289 287 284 267 253 255 259 257 261 267 271 274 270 263 259 255 255 258 256 255 257 256 254 252 250 247 242 238 235 233 233 235 236
314 311 310 307 304 304 304 304 302 301 300 300 298 297 297 295 296 297 297 295 291 285 268 255 257 260 256 259 264 265 266 260 252 249 247 249 254 254 252 250 248 247 246 246 245 242 239 237 234 233 236 239
315 312 310 309 306 304 305 304 304 304 304 303 301 298 295 293 292 292 294 295 294 287 272 262 263 265 262 261 263 263 261 255 251 248 243 240 243 247 248 247 243 240 239 240 240 239 238 238 235 233 234 237
317 313 311 311 309 307 306 306 306 306 306 306 304 301 298 297 297 294 291 290 293 290 281 270 267 268 266 263 262 262 259 255 253 249 243 240 239 239 239 239 236 231 230 232 234 236 237 238 236 233 233 235
319 315 312 312 312 311 312 313 312 310 309 309 309 309 306 303 302 302 300 294 292 291 288 279 270 268 268 268 267 265 263 261 262 261 261 267 268 259 246 238 232 228 228 228 227 229 233 236 236 236 236 236
321 318 314 313 312 316 320 322 325 324 318 314 314 313 312 310 307 307 308 307 302 302 305 296 285 276 271 270 267 267 271 273 279 284 287 290 289 284 268 247 236 232 229 227 227 228 231 232 234 236 237 237
322 319 317 315 315 320 325 329 333 332 328 324 319 317 320 321 317 313 312 313 312 315 322 321 313 294 278 267 259 260 270 270 276 281 282 285 284 286 279 262 254 252 247 240 236 234 233 233 233 233 235 239
321 320 319 319 318 321 327 332 333 331 330 328 326 328 332 329 323 317 313 316 319 322 329 330 323 305 286 271 258 259 266 264 268 273 271 269 271 276 272 264 264 266 265 260 253 248 243 239 238 237 241 245
320 320 320 322 324 327 330 333 333 333 332 332 334 338 338 332 328 322 316 317 320 322 326 327 320 308 295 279 265 265 265 262 267 270 267 264 267 268 259 254 256 258 259 259 258 255 247 246 252 255 260 260
319 320 320 324 329 331 331 330 331 332 334 336 337 336 334 332 330 327 322 318 317 316 316 320 320 314 307 295 282 279 280 278 276 272 268 267 271 267 257 255 257 256 254 252 254 250 242 246 255 265 275 274
321 321 320 322 326 326 324 325 327 329 331 333 334 333 334 332 327 326 324 316 312 313 310 313 320 321 318 313 308 305 306 301 291 281 274 270 270 265 260 260 259 255 254 252 249 242 239 244 251 268 277 273
325 323 322 320 319 320 318 317 319 322 324 328 330 330 332 334 332 324 319 313 308 308 308 308 311 316 321 322 322 319 318 315 305 292 280 271 265 259 258 258 256 255 254 250 244 238 238 240 248 263 268 265
331 327 326 326 321 316 314 312 312 315 318 323 327 326 328 332 334 331 324 318 311 307 308 309 309 315 322 326 327 326 324 322 314 300 286 275 266 261 258 257 256 254 250 246 243 241 240 239 246 255 256 255
344 335 332 333 331 323 315 313 312 315 319 322 322 322 324 327 331 335 334 329 324 318 315 315 316 320 325 330 331 331 329 322 313 303 292 280 273 267 262 257 254 249 245 245 245 244 244 245 249 250 249 250
360 352 345 341 337 333 328 323 320 318 317 317 317 321 325 326 328 331 333 332 329 326 324 322 320 318 319 325 329 329 328 320 309 300 292 284 276 270 262 257 256 254 253 254 253 249 248 248 248 248 246 246
11 6 360 351 343 336 330 325 323 321 320 320 321 324 326 326 327 327 329 331 330 329 328 326 323 320 317 316 318 318 318 314 306 298 293 288 282 276 271 267 265 265 264 261 257 252 249 247 247 248 246 245
15 13 10 4 357 350 341 334 328 326 325 324 324 327 328 327 328 328 328 328 328 328 327 324 321 320 318 315 313 310 309 310 306 299 294 290 287 284 280 276 272 270 268 264 259 254 250 248 247 246 244 244
7 9 9 8 8 7 5 360 351 342 333 327 325 326 326 325 327 328 327 326 326 326 325 323 319 316 314 312 310 305 303 303 302 298 293 288 286 285 283 280 276 273 269 264 259 255 252 250 248 245 241 241
360 3 4 5 7 9 10 9 8 4 358 352 344 336 328 325 325 326 327 328 327 328 328 326 321 315 312 309 305 300 295 292 290 289 288 286 284 284 284 281 277 273 268 264 261 258 257 255 252 248 244 241
3 3 5 6 5 7 9 8 9 10 8 6 359 350 341 333 328 325 325 326 326 327 328 330 328 324 319 314 307 299 293 289 288 287 284 282 280 280 281 280 277 274 270 267 265 261 258 257 256 254 251 249
10 9 9 8 7 8 8 8 8 8 8 6 1 355 351 345 337 330 325 324 324 323 324 326 329 329 327 322 315 307 299 293 290 289 286 281 277 276 275 275 274 273 272 268 264 259 256 256 256 257 258 256
15 14 13 10 8 8 7 8 7 5 6 6 3 359 358 355 350 344 337 330 326 323 320 321 322 325 325 324 321 315 308 301 294 289 287 285 281 277 274 272 271 271 270 267 261 256 253 254 255 260 265 266
16 15 14 12 10 9 7 7 6 5 5 5 4 1 359 356 352 348 343 337 333 328 323 320 319 318 319 320 320 317 312 305 298 292 287 287 286 282 279 276 272 269 267 265 260 255 252 252 255 263 270 272
16 14 13 12 12 10 8 7 6 6 5 3 3 1 358 355 352 349 344 341 338 334 330 327 324 322 320 319 318 315 312 307 301 294 288 285 284 283 282 280 277 274 270 266 262 259 256 254 255 260 266 270